Regional Weather Roundup
Issued by NWS Burlington, VT

Home | Current Version | Previous Version | Text Only | Print | Product List | Glossary On
Versions: 1 2 3 4 5 6 7 8 9 10 11 12 13 14 15 16 17 18 19 20 21 22 23 24 25 26 27 28 29 30 31 32 33 34 35 36 37 38 39 40 41 42 43 44 45 46 47 48 49 50
000
ASUS41 KBTV 230230
RWRBTV
VERMONT REGIONAL WEATHER ROUNDUP
NATIONAL WEATHER SERVICE BURLINGTON VT
900 PM EST MON JAN 22 2018

NOTE: "FAIR" INDICATES FEW OR NO CLOUDS BELOW 12,000 FEET WITH NO
SIGNIFICANT WEATHER AND/OR OBSTRUCTIONS TO VISIBILITY.

* THESE REPORTS ARE NOT UNDER NWS QUALITY CONTROL AND/OR DO NOT
  REPORT WEATHER SUCH AS PRECIPITATION AND FOG.

VTZ001>019-230300-
_____VERMONT_____


CITY           SKY/WX    TMP DP  RH WIND       PRES   REMARKS
BURLINGTON     FRZ RAIN  29  26  89 S9        30.07F WCI  20
MONTPELIER     FRZ RAIN  28  26  92 S14G22    30.15F WCI  17
MORRISVILLE    CLOUDY    30  26  85 S5        30.12F WCI  25
ST. JOHNSBURY*   N/A     30  29  96 MISG      30.14F
LYNDONVILLE*   MIX PCPN  29  28  97 SE8       30.13F WCI  21
MIDDLEBURY*    MIX PCPN  29  28  96 S3        30.07F
RUTLAND*       MIX PCPN  32  28  86 SE28G37   30.06F WCI  18
SPRINGFIELD    LGT SNOW  29  28  96 SE5       30.22F FOG     WCI  24
HIGHGATE*      MIX PCPN  26  25  97 CALM      30.07F
NEWPORT*       MIX PCPN  29  27  94 SE7       30.10F WCI  22
BENNINGTON     LGT RAIN  38  31  76 VRB6      30.07F
SUTTON*          N/A     27 N/A N/A MISG        N/A
ISLAND POND*     N/A     27 N/A N/A E6          N/A  WCI  20
GALLUP MILLS*    N/A     28 N/A N/A MISG        N/A
UNION VILLAGE*   N/A     28 N/A N/A MISG        N/A

_____LAKE CHAMPLAIN_____


CITY           SKY/WX    TMP DP  RH WIND       PRES   REMARKS
BURTON ISLAND*   N/A     28  27  93 S6          N/A  WCI  22
COLCHESTER RF*   N/A     28  27  93 S15         N/A  WCI  17

$$

NYZ007-026>031-035-052-083-087-230300-
_____NORTHERN NEW YORK_____


CITY           SKY/WX    TMP DP  RH WIND       PRES   REMARKS
PLATTSBURGH    CLOUDY    26  24  92 SE8       30.06F WCI  18
SARANAC LAKE   CLOUDY    30  30 100 N3        29.90F
MASSENA        CLOUDY    22  20  92 NE21      29.97F WCI   6
OGDENSBURG*    CLOUDY    24  22  94 NE6       29.92F WCI  17
POTSDAM*       CLOUDY    25  21  86 E12G18    29.92F WCI  14
STARK FALLS*     N/A     37 N/A N/A SE23        N/A  WCI  26
WATERTOWN      FRZ RAIN  31  30  96 NE5       29.87F FOG     WCI  26
FT DRUM        CLOUDY    39  37  93 SE15      29.86F WCI  31
ALBANY         CLOUDY    38  34  85 S14       30.09F WCI  30
GLENS FALLS    CLOUDY    30  29  96 CALM      30.09F FOG

$$
NHZ002-005-011-230300-
_____NEW HAMPSHIRE_____


CITY           SKY/WX    TMP DP  RH WIND       PRES   REMARKS
LEBANON        MIX PCPN  30  26  85 E5        30.20F FOG     WCI  25
KEENE          FLURRIES  31  28  89 NE5       30.21F WCI  26
MT WASHINGTON  SNOWSHWR  16  16 100 S38G44      N/A  VSB 0   WCI  -6
PLYMOUTH       LGT SNOW  26  24  94 CALM      30.25F
WHITEFIELD     FRZ RAIN  32  25  75 S14G28    30.11F WCI  22

$$

_____REGIONAL QUEBEC LOCATIONS_____


CITY           SKY/WX    TMP DP  RH WIND       PRES   REMARKS
MONTREAL       LGTSLEET  21  18  86 NE25G31   30.06F WCI   4
QUEBEC CITY    LGT SNOW  14   9  79 E28G35    30.32F VSB 3/4 WCI  -6
SHERBROOKE     LGT SNOW  23  21  93 NE8       30.14F VSB 5/8 WCI  14

_____REGIONAL ONTARIO LOCATIONS_____


CITY           SKY/WX    TMP DP  RH WIND       PRES   REMARKS
OTTAWA         FLURRIES  21  18  86 E16G23    29.96F WCI   7

______KEY______
VSB  - VISIBILITY IN MILES
WCI  - WIND CHILL INDEX
HX   - HEAT INDEX
$$
NNNN



USA.gov is the U.S. government's official web portal to all federal, state and local government web resources and services.